[[{"header":{"parameterUnit":"m.s-1","parameterCategory":1,"la1":30.2991,"la2":30.254,"lo1":-89.0895,"lo2":-89.0444,"dx":0.0017,"dy":0.0017,"nx":28,"ny":28,"refTime":"2022-12-14T09:00:00:Z","depth":0,"parameterNumber":2,"parameterNumberName":"U-component_of_WINDS"},"data":[0,0,0,0,0,0,0,0,0,0,0,0,0,0,0,0,0,0,0,0,0,0,0,0,0,0,0,0,0,0,0,0,0,0,0,0,0,0,0,0,0,0,0,0,0,0,0,0,0,0,0,0,0,0,0,0,0,0,1.2945,1.2942,0,1.2733,1.273,1.2728,1.2597,1.2596,1.2595,1.2595,1.2374,1.2369,1.2364,0,0,0,0,0,0,0,0,0,0,0,0,0,1.3232,1.3227,1.2945,1.2942,1.294,1.2733,1.273,1.2727,1.2597,1.2596,1.2595,1.2594,1.2376,1.237,1.2363,0,0,0,0,0,0,0,0,0,0,0,0,0,1.3072,1.3226,1.2945,1.285,1.2839,1.2734,1.273,1.2727,1.2597,1.2596,1.2595,1.2594,1.2378,1.237,1.2363,1.2335,0,0,1.2339,1.2335,0,0,0,0,0,0,0,0,1.3081,1.3062,1.2866,1.2856,1.2844,1.269,1.275,1.2595,1.2597,1.2689,1.2595,1.2593,1.248,1.2464,1.2426,1.2325,1.2315,1.2338,1.2333,1.233,1.2328,0,0,0,0,0,0,0,1.3093,1.307,1.2861,1.2864,1.285,1.2816,1.2792,1.272,1.2593,1.2681,1.2671,1.2648,1.2474,1.2434,1.242,1.2312,1.2338,1.2331,1.2326,1.2323,1.2176,1.2176,0,0,0,0,0,0,1.3119,1.308,1.2868,1.2854,1.2963,1.2811,1.2785,1.2741,1.2593,1.257,1.2649,1.2642,1.2448,1.2429,1.2412,1.2369,1.233,1.2323,1.2318,1.2175,1.2176,1.2177,0,0,0,0,0,0,1.3126,1.3102,1.2876,1.2964,1.2933,1.2808,1.2759,1.2737,1.2697,1.2569,1.2545,1.2632,1.2446,1.2423,1.2355,1.2359,1.2319,1.2312,1.2174,1.2175,1.2176,1.2284,0,0,0,0,0,0,1.3135,1.3105,1.3094,1.2965,1.2929,1.2825,1.2759,1.2734,1.2684,1.2674,1.2547,1.2525,1.2444,1.2367,1.2347,1.2348,1.2306,1.2173,1.2174,1.2176,1.2279,1.2289,1.2296,0,0,0,0,0,1.3146,1.3132,1.3095,1.307,1.2913,1.2825,1.2804,1.2712,1.2685,1.2673,1.259,1.2529,1.2362,1.2362,1.2338,1.2336,1.2172,1.2174,1.2176,1.2275,1.2287,1.2296,0,0,0,0,0,0,1.3264,1.3114,1.307,1.3015,1.2934,1.2803,1.2785,1.2727,1.2651,1.2644,1.2532,1.2504,1.2448,1.2384,1.2387,1.2301,1.226,1.2257,1.2344,1.2354,1.2362,1.2378,1.2299,0,0,0,0,0,1.3284,1.3227,1.3098,1.3062,1.3023,1.2912,1.287,1.2806,1.2717,1.2681,1.2594,1.2509,1.2436,1.2391,1.2318,1.227,1.2239,1.2256,1.2265,1.2273,1.2271,1.2239,1.2245,1.2182,1.2182,1.2182,0,0,1.3324,1.3235,1.3205,1.3083,1.3013,1.2954,1.2883,1.2824,1.2779,1.2672,1.2603,1.2536,1.2433,1.2374,1.2344,1.232,1.2282,1.2275,1.2282,1.2276,1.2242,1.2248,1.2254,1.2184,1.2183,1.2183,0,0,1.3367,1.3295,1.3256,1.3187,1.3082,1.3008,1.2999,1.2876,1.2828,1.2757,1.2675,1.2619,1.2498,1.2428,1.2376,1.2393,1.2333,1.2372,1.2416,1.2387,1.2392,1.2395,1.24,1.2404,1.2371,1.2371,1.2371,0,1.343,1.334,1.3243,1.3189,1.3137,1.3038,1.2998,1.2935,1.2811,1.2777,1.2752,1.2598,1.2521,1.2445,1.2449,1.2411,1.2396,1.2386,1.2399,1.2402,1.2404,1.2407,1.241,1.2377,1.2376,1.2375,1.2375,0,1.3422,1.3361,1.3342,1.3226,1.3172,1.3125,1.302,1.2976,1.2917,1.2845,1.2773,1.2678,1.2584,1.2561,1.2502,1.2475,1.2463,1.2421,1.2377,1.2417,1.2418,1.2419,1.2384,1.2382,1.2381,1.2379,0,0,1.3534,1.3365,1.336,1.3306,1.3182,1.3132,1.308,1.2988,1.2953,1.287,1.2823,1.2723,1.2682,1.2624,1.2556,1.253,1.2548,1.2489,1.2485,1.2503,1.2511,1.2544,1.2547,1.2508,1.2507,1.2507,1.2519,0,1.3558,1.3461,1.3372,1.3307,1.3248,1.3153,1.3107,1.3026,1.2957,1.2895,1.2818,1.2749,1.2701,1.2665,1.2635,1.2552,1.2548,1.255,1.2461,1.2459,1.2489,1.2548,1.2582,1.2599,1.2519,1.2519,1.2519,0,1.3573,1.3496,1.3426,1.3307,1.3279,1.324,1.3149,1.3092,1.2997,1.2948,1.2884,1.2813,1.2751,1.2715,1.2628,1.2632,1.259,1.2543,1.2542,1.2529,1.2492,1.2537,1.2601,1.2604,1.2519,1.2519,1.2519,0,1.3661,1.354,1.3481,1.3438,1.3299,1.3273,1.3214,1.3118,1.3068,1.2988,1.2954,1.2868,1.2821,1.2754,1.2661,1.2643,1.2584,1.254,1.254,1.2543,1.2532,1.2534,1.2591,1.2506,1.2506,1.2506,1.2506,0,1.3697,1.3657,1.3519,1.3483,1.3435,1.3333,1.3287,1.3219,1.3135,1.3083,1.2995,1.2947,1.2827,1.2765,1.2692,1.263,1.2609,1.2567,1.2548,1.2575,1.258,1.2546,1.2542,1.2507,1.2507,1.2506,1.2506,0,1.3787,1.3693,1.3623,1.3497,1.3464,1.3435,1.3326,1.3286,1.3213,1.3148,1.3127,1.301,1.2932,1.2833,1.2723,1.2674,1.262,1.2591,1.2653,1.2642,1.2648,1.2649,1.2684,1.2683,1.2601,1.2602,1.2603,0,1.3816,1.3783,1.3654,1.3614,1.3558,1.3494,1.3443,1.3341,1.3291,1.318,1.3154,1.307,1.2997,1.2877,1.2782,1.2697,1.2664,1.2683,1.2651,1.2679,1.2664,1.2667,1.2662,1.2691,1.2692,1.2693,1.2694,0,1.3877,1.3832,1.3763,1.3679,1.3621,1.3549,1.3472,1.3444,1.3325,1.3274,1.3194,1.3138,1.3026,1.2943,1.2846,1.2782,1.2718,1.2705,1.27,1.2727,1.2764,1.2743,1.2674,1.2705,1.2704,1.2703,1.2702,1.2702,1.3936,1.3902,1.3807,1.3733,1.3665,1.3596,1.3552,1.3474,1.3406,1.3308,1.3251,1.3173,1.3077,1.2941,1.288,1.2816,1.2792,1.2786,1.2784,1.2784,1.2792,1.2775,1.2798,1.2798,1.2797,1.2797,1.2797,0,1.3992,1.3926,1.3859,1.3756,1.3697,1.3644,1.3556,1.351,1.3443,1.336,1.3291,1.3198,1.3117,1.3016,1.2928,1.2896,1.2864,1.2876,1.2877,1.2863,1.2819,1.2832,1.2903,1.2903,1.2903,1.2903,1.2903,1.2903,1.4014,1.3954,1.3898,1.3803,1.3736,1.366,1.3615,1.3549,1.3483,1.3384,1.3317,1.3252,1.3161,1.3065,1.2988,1.296,1.2931,1.2952,1.2915,1.2876,1.2866,1.2857,1.2868,1.2947,1.2947,1.2964,1.2964,1.2964]},{"header":{"parameterUnit":"m.s-1","parameterCategory":1,"la1":30.2991,"la2":30.254,"lo1":-89.0895,"lo2":-89.0444,"dx":0.0017,"dy":0.0017,"nx":28,"ny":28,"refTime":"2022-12-14T09:00:00:Z","depth":0,"parameterNumber":3,"parameterNumberName":"V-component_of_WINDS"},"data":[0,0,0,0,0,0,0,0,0,0,0,0,0,0,0,0,0,0,0,0,0,0,0,0,0,0,0,0,0,0,0,0,0,0,0,0,0,0,0,0,0,0,0,0,0,0,0,0,0,0,0,0,0,0,0,0,0,0,8.993,8.9932,0,9.0082,9.0084,9.0086,9.0092,9.009,9.0088,9.0086,9.025,9.0256,9.0262,0,0,0,0,0,0,0,0,0,0,0,0,0,8.9656,8.9661,8.993,8.9932,8.9934,9.0082,9.0084,9.0086,9.0092,9.009,9.0088,9.0086,9.0248,9.0256,9.0263,0,0,0,0,0,0,0,0,0,0,0,0,0,8.9789,8.9663,8.993,8.9954,8.9958,9.0082,9.0084,9.0087,9.0093,9.009,9.0087,9.0084,9.0246,9.0255,9.0264,9.0375,0,0,9.0292,9.0296,0,0,0,0,0,0,0,0,8.9781,8.9799,8.9949,8.9953,8.9957,9.0065,9.0048,9.0184,9.0093,9.0042,9.0086,9.0083,9.0192,9.0205,9.024,9.0383,9.039,9.0293,9.0298,9.0302,9.0305,0,0,0,0,0,0,0,8.9772,8.9792,8.9991,8.9951,8.9956,8.9962,8.9978,9.0074,9.0131,9.0046,9.0047,9.0064,9.0193,9.0231,9.0244,9.0393,9.0292,9.03,9.0306,9.031,9.0643,9.0646,0,0,0,0,0,0,8.9756,8.9784,8.9986,8.9995,8.986,8.9969,8.9987,9.0033,9.0129,9.0141,9.0067,9.0064,9.0217,9.0233,9.025,9.0391,9.0302,9.0311,9.0316,9.0639,9.0643,9.0647,0,0,0,0,0,0,8.9751,8.9774,8.998,8.989,8.9917,8.9976,9.0029,9.0038,9.0075,9.0145,9.0156,9.0094,9.0215,9.0237,9.0345,9.0397,9.0315,9.0323,9.0635,9.0641,9.0645,9.0671,0,0,0,0,0,0,8.9743,8.9772,8.9812,8.9891,8.9921,9.0069,9.0032,9.0043,9.009,9.0088,9.0173,9.0185,9.0215,9.0331,9.0354,9.0408,9.033,9.0631,9.0638,9.0644,9.0666,9.0677,9.0686,0,0,0,0,0,8.9733,8.9814,8.9814,8.9838,8.9972,9.0072,9.009,9.012,9.0094,9.0137,9.0183,9.0182,9.0387,9.0342,9.0368,9.0425,9.0628,9.0636,9.0643,9.0662,9.0675,9.0686,0,0,0,0,0,0,8.9741,8.9824,8.9825,8.9933,8.9995,9.0072,9.0127,9.0131,9.0204,9.0199,9.0237,9.0256,9.0365,9.0406,9.0355,9.0542,9.0505,9.0518,9.0511,9.0523,9.0533,9.0522,9.0338,0,0,0,0,0,8.9755,8.9825,8.9896,8.9985,9.0016,9.0066,9.0111,9.0129,9.0196,9.0223,9.0276,9.0343,9.0424,9.0476,9.0553,9.0672,9.0694,9.0725,9.0734,9.0742,9.0754,9.0826,9.0842,9.0672,9.0672,9.0672,0,0,8.9785,8.9839,8.9882,8.9988,9.0038,9.0115,9.0088,9.0169,9.0228,9.0236,9.0342,9.0384,9.0462,9.0578,9.0632,9.0616,9.0806,9.0752,9.0757,9.0765,9.0836,9.0852,9.0866,9.0677,9.0676,9.0675,0,0,8.988,8.9926,9.0007,9.0059,9.0135,9.0168,9.0188,9.0266,9.0294,9.04,9.0409,9.0482,9.0617,9.0675,9.0721,9.0844,9.0848,9.0868,9.092,9.099,9.1003,9.1016,9.1064,9.108,9.0879,9.0879,9.0879,0,8.9909,9.0021,9.0049,9.0132,9.0181,9.019,9.0276,9.0325,9.0424,9.0459,9.0439,9.0613,9.0666,9.0798,9.0829,9.0865,9.0893,9.0859,9.0998,9.1011,9.1023,9.107,9.1087,9.0881,9.0881,9.0881,9.0881,0,9.0055,9.0134,9.0191,9.0285,9.034,9.0424,9.0469,9.0523,9.0538,9.0575,9.0688,9.0752,9.0845,9.0878,9.0893,9.1014,9.1002,9.099,9.0954,9.1041,9.1086,9.1103,9.0885,9.0884,9.0883,9.0883,0,0,9.0157,9.0268,9.0289,9.0334,9.0421,9.0484,9.0571,9.066,9.0708,9.0777,9.0854,9.0971,9.0962,9.1015,9.1038,9.1099,9.1198,9.108,9.1083,9.1103,9.1343,9.1353,9.1373,9.1201,9.1205,9.1207,9.1337,0,9.0264,9.0415,9.0446,9.0579,9.0655,9.0668,9.0745,9.0809,9.0848,9.0922,9.0966,9.105,9.1028,9.1062,9.1123,9.1173,9.1247,9.1164,9.1279,9.1282,9.126,9.1395,9.1406,9.1525,9.1354,9.1357,9.1359,0,9.0408,9.048,9.0621,9.0702,9.0735,9.0803,9.089,9.0959,9.1035,9.1059,9.1121,9.1138,9.1235,9.1194,9.1331,9.1273,9.1323,9.1355,9.1361,9.1375,9.1327,9.1417,9.1563,9.1583,9.1386,9.1384,9.1382,0,9.0474,9.0606,9.0708,9.0746,9.0842,9.0891,9.0934,9.1006,9.106,9.1138,9.1174,9.1263,9.1312,9.1383,9.1426,9.1391,9.1561,9.1522,9.1589,9.1588,9.1625,9.1623,9.1785,9.1652,9.1652,9.1651,9.1651,0,9.0592,9.0678,9.074,9.0803,9.0902,9.0939,9.1038,9.1081,9.1147,9.1223,9.1239,9.1311,9.1362,9.1442,9.1477,9.1588,9.161,9.1636,9.1645,9.1636,9.1633,9.167,9.1665,9.1656,9.1655,9.1654,9.1653,0,9.0682,9.0725,9.0839,9.0921,9.0945,9.1015,9.1088,9.1153,9.1193,9.1289,9.1314,9.1378,9.1474,9.1524,9.1644,9.1668,9.1795,9.1797,9.1768,9.1772,9.1838,9.1832,9.2032,9.2063,9.1906,9.1907,9.1908,0,9.0755,9.0822,9.0912,9.0963,9.1007,9.1088,9.1144,9.1184,9.1242,9.1336,9.1391,9.1488,9.1567,9.1721,9.1782,9.1875,9.1882,9.1946,9.1897,9.1888,9.1889,9.1885,9.1895,9.1955,9.1957,9.1958,9.1959,0,9.0882,9.0901,9.0978,9.1065,9.113,9.12,9.127,9.1312,9.1365,9.143,9.1528,9.1589,9.1713,9.1811,9.191,9.1959,9.1971,9.1974,9.1995,9.1988,9.1971,9.1986,9.1796,9.197,9.1969,9.1968,9.1967,9.1967,9.0969,9.1031,9.1105,9.1192,9.1249,9.1315,9.1381,9.143,9.1511,9.1614,9.1634,9.1739,9.182,9.1953,9.2006,9.2093,9.208,9.2109,9.2117,9.2125,9.213,9.1955,9.2111,9.211,9.211,9.211,9.211,0,9.11,9.1149,9.1229,9.1326,9.1396,9.1398,9.1477,9.1537,9.1628,9.17,9.1779,9.1895,9.1991,9.206,9.2159,9.2216,9.2224,9.2241,9.2239,9.2251,9.2133,9.2107,9.2233,9.2233,9.2233,9.2233,9.2233,9.2233,9.1177,9.1283,9.1313,9.145,9.15,9.1601,9.1647,9.171,9.1769,9.1896,9.1976,9.2019,9.2093,9.2199,9.2289,9.2308,9.2346,9.2363,9.2383,9.2272,9.2259,9.2246,9.2222,9.237,9.237,9.2494,9.2495,9.2496]}]]